Regional Weather Roundup
Issued by NWS

Home | Current Version | Previous Version | Graphics & Text | Print | Product List | Glossary On
Versions: 1 2 3 4 5 6 7 8 9 10 11 12 13 14 15 16 17 18 19 20 21 22 23 24 25 26 27 28 29 30 31 32 33 34 35 36 37 38 39 40 41 42 43 44 45 46 47 48 49 50
000
ASUS43 KMKX 271721
RWRWI

WISCONSIN REGIONAL WEATHER ROUNDUP
NATIONAL WEATHER SERVICE MILWAUKEE/SULLIVAN WI
1200 PM CDT FRI MAY 27 2016

NOTE: "FAIR" INDICATES FEW OR NO CLOUDS BELOW 12,000 FEET WITH NO
SIGNIFICANT WEATHER AND/OR OBSTRUCTIONS TO VISIBILITY.

WIZ001-002-006>008-014>016-023>028-271800-
NORTHWEST WISCONSIN

CITY           SKY/WX    TMP DP  RH WIND       PRES   REMARKS
SUPERIOR ARPT  LGT RAIN  46  46 100 CALM      29.92R
ASHLAND        CLOUDY    53  49  86 N7        29.89S
HAYWARD        CLOUDY    66  56  70 N5        29.85F
SIREN          LGT RAIN  65  61  86 NW7       29.84F
CUMBERLAND     CLOUDY    66  59  77 NE3       29.83F
RICE LAKE      CLOUDY    68  58  69 NE5       29.85R
CHETEK         CLOUDY    67  59  74 E3        29.83S
LADYSMITH      CLOUDY    69  59  71 E8        29.87S
EAU CLAIRE     CLOUDY    71  60  68 E7        29.81R
MENOMONIE      CLOUDY    66  65  97 CALM      29.83R
NEW RICHMOND   DRIZZLE   63  61  95 NW7       29.81F
OSCEOLA        LGT RAIN  64  64 100 W5        29.85S
$$

WIZ003>005-009-010-017-018-271800-
NORTH CENTRAL WISCONSIN

CITY           SKY/WX    TMP DP  RH WIND       PRES   REMARKS
MANITOWISH WTR NOT AVBL
ARBOR VITAE    PTSUNNY   72  62  70 E5        29.90S
WOODRUFF       PTSUNNY   72  62  70 E5        29.90S
RHINELANDER    CLOUDY    69  59  70 E6        29.90S
EAGLE RIVER      N/A     69  59  69 E5        29.91R
LAND O LAKES   CLOUDY    71  59  66 SE5       29.93R
PHILLIPS       CLOUDY    69  58  67 E5        29.87S
TOMAHAWK       CLOUDY    66  59  76 CALM      29.90S
MEDFORD        CLOUDY    66  58  76 E7        29.86S
MERRILL        CLOUDY    70  63  78 E5        29.88F
$$

WIZ029-030-035-036-043>047-271800-
CENTRAL WISCONSIN

CITY           SKY/WX    TMP DP  RH WIND       PRES   REMARKS
WAUSAU         CLOUDY    72  60  66 E6        29.85F
MOSINEE        PTSUNNY   70  63  78 E5        29.87F
MARSHFIELD     PTSUNNY   76  60  57 SE15      29.84F
STEVENS POINT  CLOUDY    71  60  69 E9        29.86F
WAUPACA        CLOUDY    70  68  94 E7        29.87F
WAUTOMA        CLOUDY    70  65  84 E6        29.86F
WISC RAPIDS    CLOUDY    76  58  53 SE12      29.86S
CAMP DOUGLAS   MOSUNNY   78  75  91 SE12G20   29.83F
$$

WIZ011>013-019>022-031-037>040-048>050-271800-
NORTHEAST WISCONSIN

CITY           SKY/WX    TMP DP  RH WIND       PRES   REMARKS
ANTIGO         CLOUDY    69  61  74 E6        29.90S
SHAWANO        CLOUDY    74  64  71 E7        29.88S
OCONTO         CLOUDY    68  66  93 E7        29.89R
STURGEON BAY   NOT AVBL
GREEN BAY      FOG       67  65  93 SW7G18    29.91R THUNDER VSB 1/2
MANITOWOC      CLOUDY    55  54  94 SE9       29.91R
APPLETON       PTSUNNY   66  66 100 VRB6      29.88S
CLINTONVILLE   LGT RAIN  73  63  68 S5        29.88R
OSHKOSH        CLOUDY    70  66  87 NE6       29.87F
$$

WIZ032>034-041-042-053>061-271800-
SOUTHWEST WISCONSIN

CITY           SKY/WX    TMP DP  RH WIND       PRES   REMARKS
LA CROSSE      PTSUNNY   74  63  68 S3        29.79F
SPARTA         CLOUDY    74  61  62 SE15      29.82F
VIROQUA        CLOUDY    71  62  73 SE10      29.83S
BOSCOBEL       CLOUDY    75  64  68 VRB3      29.82S
PRAIRIE DU CHI CLOUDY    71  61  69 SE9       29.81R
PLATTEVILLE    CLOUDY    72  66  83 SE10      29.83F
$$

WIZ056-057-062-063-064-067-068-271800-
SOUTH CENTRAL WISCONSIN

CITY           SKY/WX    TMP DP  RH WIND       PRES   REMARKS
REEDSBURG      CLOUDY    73  63  72 SE7       29.84S
BARABOO/DELLS  CLOUDY    74  62  66 S9        29.85S
LONE ROCK      CLOUDY    73  63  70 S7        29.84S
MINERAL POINT  PTSUNNY   73  66  78 SE8       29.84F
MADISON        PTSUNNY   76  63  64 S13       29.85F
MIDDLETON      CLOUDY    78  63  60 S7        29.85F
WATERTOWN      CLOUDY    76  65  68 S8        29.86F
MONROE         CLOUDY    77  63  61 S14       29.85F
JANESVILLE     PTSUNNY   79  64  61 S12G17    29.86F HX  81
$$

WIZ051-052-058>065-066-070>072-271800-
SOUTHEAST WISCONSIN

CITY           SKY/WX    TMP DP  RH WIND       PRES   REMARKS
MILWAUKEE      CLOUDY    73  66  78 SE8       29.88S
WAUKESHA       CLOUDY    72  66  83 S7        29.90S
MILWAUKEE/TIMM CLOUDY    75  64  69 S7        29.89S
RACINE         CLOUDY    71  64  78 S9        29.91R
BURLINGTON     CLOUDY    77  65  66 S7        29.89S
KENOSHA        PTSUNNY   76  68  76 S10       29.90R
FOND DU LAC    MOSUNNY   70  65  84 VRB3      29.88S
SHEBOYGAN      CLOUDY    71  65  81 S8        29.89R HAZE
WEST BEND      CLOUDY    73  68  83 SE7       29.87F
JUNEAU         CLOUDY    72  65  79 CALM      29.89S
$$

LSZ147-162-271800-
LAKE SUPERIOR

STATION/POSITION TIME  TEMP    WIND        PRES    WAVE
                       AIR SEA DIR/SP/G            HT/PER
                 (UTC) (F)     (DEG/KT/KT) (MB)    (FT/S)
W MID LAKE BUOY  1650   40 38   20/  6/  8 1013.5F   0
DEVILS ISLAND    1700   43      60/ 12/ 13 1013.2F
SAXON HARBOR     1640   47      50/  3/  4 1011.9F
$$

LMZ867-665-643>646-271800-
LAKE MICHIGAN

STATION/POSITION TIME  TEMP    WIND        PRES    WAVE
                       AIR SEA DIR/SP/G            HT/PER
                 (UTC) (F)     (DEG/KT/KT) (MB)    (FT/S)
CHAMBERS ISLAND  1600   58     360/  6/  8 1012.9S
N MID LAKE BUOY  1650   48 46   60/  6/  6 1013.2F   1
NORTHPORT PIER   1600   52     120/  6/  8 1012.9F
SISTER BAY       1619   70        CALM       N/A
ALGOMA LAKESHORE 1617          100/  6/  7   N/A
KEWAUNEE LAKESHO 1600   54     120/  3/  4 1012.2R
SHEBOYGAN LAKESH 1700   53     160/ 14/ 15 1012.8R
PORT WASHINGTON  1640   59      60/  3/  3 1012.9S
S MID LAKE BUOY  1650   54 50  140/ 10/ 12 1013.1S   1/ 3
KENOSHA   LAKESH 1700   60     170/ 12/ 16 1012.2S
$$

TC  - TEMPERATURE IN CELSIUS
VSB - VISIBILITY IN STATUTE MILES
WCI - WIND CHILL INDEX
HX  - HEAT INDEX





USA.gov is the U.S. government's official web portal to all federal, state and local government web resources and services.